| time (UTC) | temp C | wind direction | speed KPH | gust KPH | rain 1hr cm | rain 24hr cm | rain mn cm | humidity % | barometer mb |
| 20260905080035 | 18 | 46 | 0.0 | 0.0 | 0.00 | 0.00 | 0.00 | 94 | 1013.3 |
| 20260905074534 | 18 | 46 | 0.0 | 0.0 | 0.00 | 0.00 | 0.00 | 94 | 1013.3 |
| 20260905073003 | 18 | 41 | 0.0 | 0.0 | 0.00 | 0.00 | 0.00 | 94 | 1013.5 |
| 20260905071504 | 18 | 51 | 0.0 | 0.0 | 0.00 | 0.00 | 0.00 | 94 | 1013.4 |
| 20260905070100 | 18 | 31 | 0.0 | 0.0 | 0.00 | 0.00 | 0.00 | 94 | 1013.5 |
| 20260905064600 | 17 | 19 | 0.0 | 0.0 | 0.00 | 0.00 | 0.00 | 93 | 1013.6 |
| 20260905063100 | 17 | 14 | 0.0 | 0.0 | 0.00 | 0.00 | 0.00 | 93 | 1013.3 |
| 20260905061605 | 18 | 26 | 0.0 | 0.0 | 0.00 | 0.00 | 0.00 | 92 | 1013.1 |
| 20260905060104 | 18 | 11 | 0.0 | 0.0 | 0.00 | 0.00 | 0.00 | 91 | 1013.4 |
| 20260905054600 | 18 | 24 | 0.0 | 0.0 | 0.00 | 0.00 | 0.00 | 90 | 1013.3 |
| 20260905053048 | 19 | 25 | 0.0 | 0.0 | 0.00 | 0.00 | 0.00 | 90 | 1013.3 |
| 20260905051603 | 19 | 21 | 0.0 | 0.0 | 0.00 | 0.00 | 0.00 | 89 | 1013.0 |
| 20260905050041 | 19 | 20 | 0.0 | 0.0 | 0.00 | 0.00 | 0.00 | 88 | 1012.8 |
| 20260905044543 | 20 | 26 | 0.0 | 0.0 | 0.00 | 0.00 | 0.00 | 88 | 1012.6 |
| 20260905043040 | 20 | 360 | 0.0 | 0.0 | 0.00 | 0.00 | 0.00 | 87 | 1012.7 |
| 20260905041535 | 20 | 41 | 0.0 | 0.0 | 0.00 | 0.00 | 0.00 | 85 | 1012.8 |
| 20260905040031 | 21 | 28 | 0.0 | 0.0 | 0.00 | 0.00 | 0.00 | 85 | 1012.9 |
| 20260905034529 | 21 | 18 | 0.0 | 0.0 | 0.00 | 0.00 | 0.00 | 84 | 1012.6 |
| 20260905033025 | 21 | 23 | 0.0 | 0.0 | 0.00 | 0.00 | 0.00 | 83 | 1012.6 |
| 20260905031536 | 22 | 68 | 0.0 | 0.0 | 0.00 | 0.00 | 0.00 | 81 | 1012.4 |
| 20260905024603 | 22 | 46 | 0.0 | 0.0 | 0.00 | 0.00 | 0.00 | 80 | 1012.3 |
| 20260905023051 | 23 | 18 | 0.0 | 0.0 | 0.00 | 0.00 | 0.00 | 79 | 1012.0 |
| 20260905021546 | 23 | 27 | 0.0 | 0.0 | 0.00 | 0.00 | 0.00 | 79 | 1011.9 |
| 20260905020044 | 23 | 40 | 0.0 | 0.0 | 0.00 | 0.00 | 0.00 | 78 | 1011.7 |
| 20260905014543 | 24 | 30 | 0.0 | 0.0 | 0.00 | 0.00 | 0.00 | 78 | 1011.5 |
| 20260905013052 | 25 | 24 | 0.0 | 0.0 | 0.00 | 0.00 | 0.00 | 76 | 1011.6 |
| 20260905011536 | 25 | 14 | 0.0 | 0.0 | 0.00 | 0.00 | 0.00 | 75 | 1011.4 |
| 20260905010035 | 25 | 355 | 0.0 | 0.0 | 0.00 | 0.00 | 0.00 | 73 | 1011.3 |
| 20260905004534 | 26 | 355 | 0.0 | 0.0 | 0.00 | 0.00 | 0.00 | 72 | 1011.2 |
| 20260905003030 | 27 | 29 | 0.0 | 0.0 | 0.00 | 0.00 | 0.00 | 71 | 1011.1 |
| 20260905001529 | 27 | 29 | 0.0 | 0.0 | 0.00 | 0.00 | 0.00 | 69 | 1011.0 |
| 20260905000030 | 27 | 29 | 0.0 | 0.0 | 0.00 | 0.00 | 0.00 | 67 | 1010.8 |
| 20260904234529 | 27 | 30 | 0.0 | 0.0 | 0.00 | 0.00 | 0.00 | 67 | 1010.7 |
| 20260904233056 | 28 | 26 | 0.0 | 0.0 | 0.00 | 0.00 | 0.00 | 66 | 1010.8 |
| 20260904231555 | 28 | 360 | 0.0 | 0.0 | 0.00 | 0.00 | 0.00 | 67 | 1010.7 |
| 20260904230105 | 28 | 18 | 0.0 | 0.0 | 0.00 | 0.00 | 0.00 | 67 | 1010.5 |
| 20260904224551 | 28 | 347 | 0.0 | 0.0 | 0.00 | 0.00 | 0.00 | 68 | 1010.4 |
| 20260904223105 | 28 | 19 | 0.0 | 0.0 | 0.00 | 0.00 | 0.00 | 68 | 1010.2 |
| 20260904221553 | 28 | 343 | 0.0 | 0.0 | 0.00 | 0.00 | 0.00 | 69 | 1010.2 |
| 20260904220016 | 27 | 344 | 0.0 | 0.0 | 0.00 | 0.00 | 0.00 | 70 | 1010.0 |
| 20260904214515 | 28 | 5 | 0.0 | 0.0 | 0.00 | 0.00 | 0.00 | 70 | 1010.0 |
| 20260904213010 | 27 | 41 | 0.0 | 0.0 | 0.00 | 0.00 | 0.00 | 71 | 1010.0 |
| 20260904211507 | 27 | 14 | 0.0 | 0.0 | 0.00 | 0.00 | 0.00 | 72 | 1009.9 |
| 20260904210006 | 27 | 360 | 0.0 | 0.0 | 0.00 | 0.00 | 0.00 | 72 | 1010.1 |
| 20260904204503 | 27 | 360 | 0.0 | 0.0 | 0.00 | 0.00 | 0.00 | 73 | 1010.1 |
| 20260904203032 | 26 | 342 | 0.0 | 0.0 | 0.00 | 0.00 | 0.00 | 74 | 1010.0 |
| 20260904201538 | 26 | 27 | 0.0 | 0.0 | 0.00 | 0.00 | 0.00 | 77 | 1010.2 |
| 20260904200039 | 26 | 5 | 0.0 | 0.0 | 0.00 | 0.00 | 0.00 | 79 | 1010.2 |
| 20260904194523 | 26 | 55 | 0.0 | 0.0 | 0.00 | 0.00 | 0.00 | 79 | 1010.3 |
| 20260904193025 | 25 | 65 | 0.0 | 0.0 | 0.00 | 0.00 | 0.00 | 80 | 1010.4 |
| 20260904191520 | 25 | 5 | 0.0 | 0.0 | 0.00 | 0.00 | 0.00 | 81 | 1010.4 |
| 20260904190015 | 25 | 34 | 0.0 | 0.0 | 0.00 | 0.23 | 0.00 | 83 | 1010.3 |
| 20260904184515 | 25 | 19 | 0.0 | 0.0 | 0.00 | 0.23 | 0.00 | 84 | 1010.3 |
| 20260904183015 | 24 | 24 | 0.0 | 0.0 | 0.00 | 0.23 | 0.00 | 85 | 1010.4 |
| 20260904181513 | 24 | 346 | 0.0 | 0.0 | 0.00 | 0.23 | 0.00 | 86 | 1010.4 |
| 20260904180013 | 23 | 345 | 0.0 | 0.0 | 0.00 | 0.23 | 0.00 | 87 | 1010.4 |
| 20260904174546 | 23 | 326 | 0.0 | 0.0 | 0.00 | 0.23 | 0.00 | 88 | 1010.4 |
| 20260904173045 | 23 | 344 | 0.0 | 0.0 | 0.00 | 0.23 | 0.00 | 90 | 1010.4 |
| 20260904171605 | 23 | 48 | 0.0 | 0.0 | 0.00 | 0.23 | 0.00 | 91 | 1010.3 |
| 20260904170035 | 23 | 14 | 0.0 | 0.0 | 0.00 | 0.23 | 0.00 | 91 | 1010.2 |
| 20260904164535 | 22 | 346 | 0.0 | 0.0 | 0.00 | 0.23 | 0.00 | 92 | 1009.9 |
| 20260904163047 | 22 | 348 | 0.0 | 0.0 | 0.00 | 0.23 | 0.00 | 94 | 1009.7 |
| 20260904161530 | 22 | 315 | 0.0 | 0.0 | 0.00 | 0.23 | 0.00 | 94 | 1009.7 |
| 20260904160029 | 22 | 344 | 0.0 | 0.0 | 0.00 | 0.23 | 0.00 | 94 | 1009.5 |
| 20260904154528 | 22 | 328 | 0.0 | 0.0 | 0.00 | 0.23 | 0.00 | 94 | 1009.3 |
| 20260904153032 | 22 | 329 | 0.0 | 0.0 | 0.00 | 0.23 | 0.00 | 94 | 1009.1 |
| 20260904151534 | 23 | 346 | 0.0 | 0.0 | 0.00 | 0.23 | 0.00 | 95 | 1008.9 |
| 20260904150023 | 23 | 24 | 0.0 | 0.0 | 0.00 | 0.23 | 0.00 | 95 | 1008.8 |
| 20260904144520 | 22 | 24 | 0.0 | 0.0 | 0.00 | 0.23 | 0.00 | 96 | 1008.6 |
| 20260904143017 | 22 | 24 | 0.0 | 0.0 | 0.00 | 0.23 | 0.00 | 96 | 1008.4 |
| 20260904141516 | 22 | 24 | 0.0 | 0.0 | 0.00 | 0.23 | 0.00 | 96 | 1008.4 |
| 20260904140015 | 22 | 24 | 0.0 | 0.0 | 0.00 | 0.23 | 0.00 | 96 | 1008.5 |
| 20260904134520 | 22 | 24 | 0.0 | 0.0 | 0.00 | 0.23 | 0.00 | 96 | 1008.4 |
| 20260904133012 | 22 | 24 | 0.0 | 0.0 | 0.00 | 0.23 | 0.00 | 95 | 1008.3 |
| 20260904131509 | 21 | 24 | 0.0 | 0.0 | 0.00 | 0.23 | 0.00 | 95 | 1008.4 |
| 20260904130007 | 21 | 24 | 0.0 | 0.0 | 0.00 | 0.23 | 0.00 | 95 | 1008.3 |
| 20260904124505 | 21 | 24 | 0.0 | 0.0 | 0.00 | 0.23 | 0.00 | 95 | 1008.1 |
| 20260904123005 | 21 | 24 | 0.0 | 0.0 | 0.00 | 0.23 | 0.00 | 95 | 1008.0 |
| 20260904121533 | 21 | 26 | 0.0 | 0.0 | 0.00 | 0.23 | 0.00 | 95 | 1007.6 |
| 20260904120042 | 21 | 113 | 0.0 | 0.0 | 0.00 | 0.23 | 0.00 | 95 | 1007.5 |
| 20260904114528 | 22 | 355 | 0.0 | 0.0 | 0.00 | 0.23 | 0.00 | 95 | 1007.6 |
| 20260904113025 | 22 | 5 | 0.0 | 0.0 | 0.00 | 0.23 | 0.00 | 95 | 1007.2 |
| 20260904111524 | 22 | 17 | 0.0 | 0.0 | 0.00 | 0.23 | 0.00 | 94 | 1007.2 |
| 20260904110025 | 22 | 5 | 0.0 | 0.0 | 0.00 | 0.23 | 0.00 | 94 | 1007.1 |
| 20260904104553 | 22 | 5 | 0.0 | 0.0 | 0.00 | 0.23 | 0.00 | 94 | 1007.0 |
| 20260904103051 | 22 | 5 | 0.0 | 0.0 | 0.00 | 0.23 | 0.00 | 94 | 1007.0 |
| 20260904101522 | 23 | 5 | 0.0 | 0.0 | 0.00 | 0.23 | 0.00 | 93 | 1006.9 |
| 20260904100019 | 23 | 5 | 0.0 | 0.0 | 0.00 | 0.23 | 0.00 | 93 | 1007.0 |
| 20260904094515 | 23 | 355 | 0.0 | 0.0 | 0.00 | 0.23 | 0.00 | 93 | 1007.1 |
| 20260904093013 | 23 | 160 | 0.0 | 0.0 | 0.00 | 0.23 | 0.00 | 92 | 1006.7 |
| 20260904091513 | 23 | 160 | 0.0 | 0.0 | 0.00 | 0.23 | 0.00 | 92 | 1006.6 |
| 20260904090020 | 23 | 160 | 0.0 | 0.0 | 0.00 | 0.23 | 0.00 | 92 | 1006.6 |
| 20260904084548 | 23 | 160 | 0.0 | 0.0 | 0.00 | 0.23 | 0.00 | 92 | 1006.5 |
| 20260904083040 | 23 | 160 | 0.0 | 0.0 | 0.00 | 0.23 | 0.00 | 92 | 1006.4 |
| 20260904081535 | 23 | 160 | 0.0 | 0.0 | 0.00 | 0.23 | 0.00 | 91 | 1006.4 |